DLH338 EDDF-LIRN

Flight info

Callsign DLH338
Flight time 1h 32m
Altitude 37000
Route CINDY8S/18 CINDY Z74 LAMPU DCT NOMBO Y161 RIDAR DCT KONIN DCT BERAS DCT LIKDA DCT BAKOR DCT BELOV DCT SUXUB DCT ERIKA
Aircraft A320/M-SDE3FGHIRWY/LB1

Departure

Time 2026-05-04 16:18
Airport Frankfurt Main Airport (EDDF)

Arrival

Time 2026-05-04 17:50
Airport Naples International Airport (LIRN)
Time Latitude Longitude Altitude Speed Heading
2026-05-04 15:58 50.04544 8.56737 375 ft 0 kts 292°
2026-05-04 16:05 50.04544 8.56738 375 ft 1 kts 292°
2026-05-04 16:05 50.04539 8.56760 375 ft 2 kts 292°
2026-05-04 16:05 50.04530 8.56795 375 ft 2 kts 276°
2026-05-04 16:06 50.04531 8.56818 375 ft 2 kts 257°
2026-05-04 16:06 50.04552 8.56862 375 ft 0 kts 207°
2026-05-04 16:07 50.04559 8.56867 375 ft 0 kts 204°
2026-05-04 16:09 50.04555 8.56865 374 ft 3 kts 204°
2026-05-04 16:09 50.04437 8.56768 374 ft 14 kts 248°
2026-05-04 16:10 50.04352 8.56407 374 ft 19 kts 249°
2026-05-04 16:11 50.04190 8.55729 374 ft 24 kts 251°
2026-05-04 16:11 50.04131 8.55476 374 ft 25 kts 248°
2026-05-04 16:12 50.03950 8.54721 374 ft 23 kts 251°
2026-05-04 16:12 50.03758 8.54045 374 ft 22 kts 250°
2026-05-04 16:13 50.03654 8.53609 374 ft 21 kts 249°
2026-05-04 16:13 50.03546 8.53188 374 ft 20 kts 251°
2026-05-04 16:14 50.03440 8.52748 373 ft 18 kts 248°
2026-05-04 16:14 50.03437 8.52738 373 ft 0 kts 248°
2026-05-04 16:16 50.03208 8.52589 373 ft 58 kts 181°
2026-05-04 16:17 50.01462 8.52619 588 ft 167 kts 181°
2026-05-04 16:18 49.97990 8.52638 2599 ft 178 kts 182°
2026-05-04 16:18 49.96729 8.53020 2993 ft 197 kts 150°
2026-05-04 16:19 49.93943 8.58754 4231 ft 254 kts 132°
2026-05-04 16:19 49.91496 8.63063 5588 ft 275 kts 132°
2026-05-04 16:20 49.87780 8.69787 8335 ft 280 kts 132°
2026-05-04 16:20 49.85251 8.74415 10113 ft 285 kts 133°
2026-05-04 16:21 49.81211 8.81789 12103 ft 314 kts 133°
2026-05-04 16:22 49.78370 8.86979 13584 ft 322 kts 133°
2026-05-04 16:22 49.73945 8.95055 15633 ft 337 kts 133°
2026-05-04 16:23 49.69361 9.03396 17639 ft 347 kts 133°
2026-05-04 16:24 49.63025 9.14869 20130 ft 359 kts 133°
2026-05-04 16:25 49.59764 9.20757 21299 ft 366 kts 134°
2026-05-04 16:26 49.53050 9.32835 23486 ft 378 kts 134°
2026-05-04 16:26 49.47874 9.42111 25015 ft 388 kts 134°
2026-05-04 16:27 49.44333 9.48439 25970 ft 394 kts 134°
2026-05-04 16:28 49.38918 9.58083 27329 ft 403 kts 134°
2026-05-04 16:28 49.33329 9.67823 28593 ft 409 kts 138°
2026-05-04 16:29 49.25199 9.80246 30118 ft 418 kts 139°
2026-05-04 16:30 49.19004 9.89665 31149 ft 424 kts 139°
2026-05-04 16:31 49.14814 9.96019 31760 ft 429 kts 139°
2026-05-04 16:31 49.08418 10.05687 32628 ft 436 kts 139°
2026-05-04 16:32 49.01814 10.15286 33422 ft 441 kts 140°
2026-05-04 16:33 48.97292 10.21629 33923 ft 444 kts 140°
2026-05-04 16:33 48.92793 10.27975 34564 ft 442 kts 140°
2026-05-04 16:34 48.88309 10.34304 35158 ft 440 kts 140°
2026-05-04 16:34 48.86067 10.37461 35373 ft 441 kts 140°
2026-05-04 16:35 48.79537 10.47304 35904 ft 445 kts 136°
2026-05-04 16:35 48.73133 10.57556 36395 ft 447 kts 136°
2026-05-04 16:36 48.71012 10.60939 36533 ft 448 kts 136°
2026-05-04 16:36 48.66710 10.67786 36854 ft 449 kts 137°
2026-05-04 16:37 48.59966 10.77487 36953 ft 447 kts 144°
2026-05-04 16:38 48.49569 10.87495 36958 ft 442 kts 156°
2026-05-04 16:39 48.35950 10.98097 36961 ft 443 kts 156°
2026-05-04 16:40 48.25023 11.06564 36961 ft 444 kts 155°
2026-05-04 16:41 48.11044 11.16000 36965 ft 440 kts 165°
2026-05-04 16:43 47.96486 11.22663 36969 ft 440 kts 165°
2026-05-04 16:43 47.87703 11.26718 36968 ft 441 kts 165°
2026-05-04 16:45 47.70141 11.34808 36993 ft 442 kts 165°
2026-05-04 16:46 47.55497 11.41512 37064 ft 442 kts 165°
2026-05-04 16:47 47.43728 11.46871 37086 ft 443 kts 165°
2026-05-04 16:48 47.31978 11.52197 37091 ft 444 kts 165°
2026-05-04 16:49 47.20194 11.57512 37107 ft 444 kts 165°
2026-05-04 16:50 47.08427 11.62798 37132 ft 444 kts 165°
2026-05-04 16:51 46.99556 11.66765 37151 ft 445 kts 166°
2026-05-04 16:52 46.87724 11.72035 37150 ft 446 kts 166°
2026-05-04 16:53 46.78834 11.75978 37160 ft 446 kts 166°
2026-05-04 16:54 46.66965 11.81223 37157 ft 447 kts 166°
2026-05-04 16:55 46.49107 11.89068 37131 ft 448 kts 166°
2026-05-04 16:56 46.34193 11.95579 37130 ft 450 kts 166°
2026-05-04 16:57 46.25229 11.99474 37126 ft 451 kts 166°
2026-05-04 16:58 46.13240 12.04663 37117 ft 451 kts 166°
2026-05-04 17:00 45.95200 12.12427 37091 ft 452 kts 166°
2026-05-04 17:01 45.80150 12.18863 37066 ft 453 kts 166°
2026-05-04 17:02 45.68069 12.24003 37056 ft 453 kts 166°
2026-05-04 17:03 45.59004 12.27844 37051 ft 454 kts 166°
2026-05-04 17:03 45.49970 12.31662 37050 ft 454 kts 166°
2026-05-04 17:04 45.37843 12.36765 37051 ft 455 kts 166°
2026-05-04 17:05 45.25751 12.41830 37052 ft 455 kts 166°
2026-05-04 17:06 45.16623 12.45640 37053 ft 455 kts 166°
2026-05-04 17:07 45.08556 12.48993 37052 ft 456 kts 166°
2026-05-04 17:07 45.01483 12.52193 37053 ft 458 kts 164°
2026-05-04 17:08 44.92444 12.56497 37057 ft 458 kts 164°
2026-05-04 17:09 44.86436 12.59334 37051 ft 459 kts 164°
2026-05-04 17:09 44.80374 12.62179 37052 ft 459 kts 164°
2026-05-04 17:10 44.74316 12.65016 37162 ft 458 kts 165°
2026-05-04 17:10 44.65287 12.69228 37071 ft 458 kts 165°
2026-05-04 17:11 44.59238 12.72040 37069 ft 458 kts 165°
2026-05-04 17:12 44.50143 12.76259 37070 ft 459 kts 165°
2026-05-04 17:13 44.34982 12.83261 37065 ft 460 kts 165°
2026-05-04 17:14 44.22861 12.88832 37060 ft 461 kts 165°
2026-05-04 17:15 44.13835 12.93466 37059 ft 464 kts 158°
2026-05-04 17:16 44.02187 13.01162 37059 ft 465 kts 158°
2026-05-04 17:17 43.90444 13.08797 37057 ft 467 kts 159°
2026-05-04 17:18 43.78704 13.16369 37064 ft 468 kts 159°
2026-05-04 17:18 43.72781 13.20172 36795 ft 468 kts 159°
2026-05-04 17:19 43.66940 13.23922 36213 ft 463 kts 159°
2026-05-04 17:19 43.61091 13.27665 35630 ft 461 kts 159°
2026-05-04 17:20 43.55264 13.31385 35051 ft 463 kts 159°
2026-05-04 17:20 43.49418 13.35106 34473 ft 464 kts 159°
2026-05-04 17:20 43.46508 13.36959 34188 ft 465 kts 159°
2026-05-04 17:21 43.40660 13.40668 33649 ft 463 kts 159°
2026-05-04 17:21 43.34844 13.44358 33096 ft 459 kts 159°
2026-05-04 17:22 43.31971 13.46176 32827 ft 458 kts 159°
2026-05-04 17:22 43.29080 13.48004 32552 ft 456 kts 159°
2026-05-04 17:23 43.20497 13.53417 31740 ft 451 kts 159°
2026-05-04 17:23 43.17645 13.55213 31463 ft 449 kts 159°
2026-05-04 17:23 43.11993 13.58768 30910 ft 446 kts 159°
2026-05-04 17:24 43.09201 13.60520 30645 ft 444 kts 159°
2026-05-04 17:24 43.00828 13.65763 29832 ft 442 kts 160°
2026-05-04 17:25 42.97988 13.67528 29545 ft 460 kts 159°
2026-05-04 17:25 42.92017 13.71239 28990 ft 481 kts 159°
2026-05-04 17:26 42.85969 13.75011 28468 ft 479 kts 159°
2026-05-04 17:26 42.76921 13.80644 27692 ft 473 kts 159°
2026-05-04 17:27 42.71007 13.84306 27218 ft 468 kts 158°
2026-05-04 17:27 42.65073 13.87973 26919 ft 466 kts 158°
2026-05-04 17:28 42.59177 13.91610 26688 ft 465 kts 158°
2026-05-04 17:29 42.50386 13.97017 26476 ft 464 kts 158°
2026-05-04 17:29 42.41587 14.02414 26384 ft 464 kts 158°
2026-05-04 17:30 42.32777 14.07800 26378 ft 464 kts 158°
2026-05-04 17:31 42.26904 14.11382 26420 ft 465 kts 158°
2026-05-04 17:31 42.18028 14.16779 26589 ft 467 kts 158°
2026-05-04 17:32 42.12104 14.20374 26257 ft 465 kts 158°
2026-05-04 17:33 42.03442 14.25614 24446 ft 448 kts 157°
2026-05-04 17:33 42.00581 14.27337 23864 ft 463 kts 157°
2026-05-04 17:34 41.91472 14.32825 22534 ft 481 kts 157°
2026-05-04 17:34 41.88443 14.34650 21981 ft 477 kts 157°
2026-05-04 17:35 41.79501 14.40022 20274 ft 465 kts 157°
2026-05-04 17:35 41.73636 14.43534 19138 ft 459 kts 157°
2026-05-04 17:35 41.70753 14.45259 18573 ft 455 kts 157°
2026-05-04 17:36 41.67855 14.46990 18036 ft 451 kts 157°
2026-05-04 17:36 41.65035 14.48673 17512 ft 447 kts 157°
2026-05-04 17:36 41.62191 14.50367 16989 ft 443 kts 157°
2026-05-04 17:36 41.59423 14.52013 16498 ft 438 kts 157°
2026-05-04 17:37 41.56630 14.53675 15965 ft 433 kts 157°
2026-05-04 17:37 41.53918 14.55285 15481 ft 428 kts 156°
2026-05-04 17:37 41.51212 14.56892 14992 ft 423 kts 156°
2026-05-04 17:37 41.48535 14.58479 14488 ft 417 kts 156°
2026-05-04 17:38 41.45932 14.60022 13996 ft 412 kts 156°
2026-05-04 17:38 41.43314 14.61571 13504 ft 407 kts 156°
2026-05-04 17:38 41.40760 14.63085 13091 ft 403 kts 156°
2026-05-04 17:38 41.38223 14.64585 12531 ft 401 kts 156°
2026-05-04 17:39 41.33154 14.67582 11444 ft 396 kts 157°
2026-05-04 17:39 41.30648 14.69060 11051 ft 394 kts 157°
2026-05-04 17:39 41.28152 14.70533 10889 ft 395 kts 157°
2026-05-04 17:40 41.25615 14.72025 10731 ft 395 kts 157°
2026-05-04 17:40 41.23106 14.73500 10583 ft 394 kts 157°
2026-05-04 17:40 41.20680 14.75099 10412 ft 392 kts 151°
2026-05-04 17:40 41.18415 14.76892 9995 ft 366 kts 150°
2026-05-04 17:41 41.16296 14.78590 9539 ft 341 kts 149°
2026-05-04 17:41 41.14316 14.80226 9079 ft 333 kts 149°
2026-05-04 17:41 41.12300 14.81683 8607 ft 327 kts 162°
2026-05-04 17:41 41.10088 14.81982 8137 ft 319 kts 187°
2026-05-04 17:42 41.08009 14.81135 7658 ft 314 kts 210°
2026-05-04 17:42 41.06399 14.79283 7232 ft 308 kts 234°
2026-05-04 17:42 41.05529 14.76767 7137 ft 292 kts 257°
2026-05-04 17:42 41.05419 14.74179 7151 ft 274 kts 273°
2026-05-04 17:43 41.05568 14.71738 7155 ft 258 kts 274°
2026-05-04 17:43 41.05726 14.69434 7161 ft 243 kts 274°
2026-05-04 17:43 41.05782 14.67286 7112 ft 229 kts 263°
2026-05-04 17:43 41.05403 14.65254 6830 ft 228 kts 247°
2026-05-04 17:44 41.04706 14.63380 6492 ft 229 kts 241°
2026-05-04 17:44 41.03915 14.61532 6140 ft 230 kts 239°
2026-05-04 17:44 41.03094 14.59716 5787 ft 232 kts 239°
2026-05-04 17:44 41.02243 14.57886 5428 ft 233 kts 238°
2026-05-04 17:45 41.01389 14.56080 5081 ft 234 kts 238°
2026-05-04 17:45 41.00516 14.54243 4735 ft 235 kts 238°
2026-05-04 17:45 40.99654 14.52434 4399 ft 235 kts 238°
2026-05-04 17:45 40.98788 14.50614 4066 ft 235 kts 238°
2026-05-04 17:46 40.97911 14.48768 3729 ft 235 kts 238°
2026-05-04 17:46 40.97046 14.46945 3395 ft 231 kts 238°
2026-05-04 17:46 40.96223 14.45208 3062 ft 219 kts 238°
2026-05-04 17:46 40.95436 14.43547 2752 ft 210 kts 239°
2026-05-04 17:47 40.94677 14.41942 2537 ft 196 kts 239°
2026-05-04 17:47 40.93976 14.40460 2260 ft 184 kts 239°
2026-05-04 17:47 40.93324 14.39083 1961 ft 173 kts 239°
2026-05-04 17:47 40.92706 14.37772 1676 ft 161 kts 239°
2026-05-04 17:48 40.92129 14.36573 1474 ft 146 kts 238°
2026-05-04 17:48 40.91595 14.35490 1227 ft 137 kts 240°
2026-05-04 17:48 40.91110 14.34444 1024 ft 130 kts 239°
2026-05-04 17:48 40.90643 14.33432 827 ft 127 kts 239°
2026-05-04 17:49 40.90174 14.32449 652 ft 128 kts 239°
2026-05-04 17:49 40.89710 14.31456 487 ft 129 kts 239°
2026-05-04 17:49 40.89255 14.30468 298 ft 123 kts 239°
2026-05-04 17:49 40.88832 14.29559 253 ft 100 kts 237°
2026-05-04 17:50 40.88554 14.28969 262 ft 53 kts 239°
2026-05-04 17:50 40.88437 14.28722 271 ft 14 kts 237°
2026-05-04 17:50 40.88375 14.28593 274 ft 19 kts 237°
2026-05-04 17:50 40.88286 14.28464 279 ft 18 kts 216°
2026-05-04 17:51 40.88181 14.28388 285 ft 17 kts 207°
2026-05-04 17:51 40.88076 14.28325 289 ft 13 kts 165°
2026-05-04 17:51 40.88055 14.28390 290 ft 9 kts 96°
2026-05-04 17:51 40.88037 14.28509 290 ft 15 kts 129°
2026-05-04 17:52 40.87954 14.28475 294 ft 15 kts 230°
2026-05-04 17:52 40.87945 14.28338 293 ft 8 kts 276°
2026-05-04 17:52 40.87908 14.28289 293 ft 9 kts 187°
2026-05-04 17:52 40.87883 14.28284 293 ft 0 kts 185°